Content
SEND FEEDBACK

Daily
Averages
Monthly
Summary
United Kingdom

LONDON, ENGLAND


Home > Europe > United Kingdom > England
Elevation: 203 feet     Latitude: 51 09N     Longitude: 000 11W

WEATHER
 
SELECT A DAY
Number of Records: 293,019;   Date Range: 7/1/96 - 7/31/14
 
SHARE

PRINT THIS DATA

[ ← Previous Day ]
WEATHER ALMANAC - NOVEMBER 12, 2013
[ Next Day → ]
[ °C ]   °F
Weather ElementAverageHighLow
Temperature50.6 °F55.4 °F (12:50 am)41 °F (10:20 pm)
Dewpoint46.9 °F55.4 °F (12:50 am)37.4 °F (10:20 pm)
Humidity87.8 %100 % (12:50 am)71 % (3:20 pm)
Barometer30.30 in30.51 in (10:20 pm)30.15 in (12:50 am)
Wind Speed6.5 mph15 mph (7:20 am)
Wind Gust26.5 mph (1:20 pm)
Weather ElementAverage
Visibility5.1 mi
Wind DirectionWSW (262.4 °)

Weather ElementTotal
Precipitation---
Heating Degree Days16.8 (Base 65)
Averaged from 46 records on November 12, 2013
WEATHER CONDITIONS BREAKOUT
WIND DIRECTION BREAKOUT
WEATHER BY HOUR - NOVEMBER 12, 2013
[ °C ]   °F
Local TimeTemperatureDewpointHumidityBarometerVisibilityWind DirectionWind SpeedGust SpeedPrecipitationEventsConditions
12:50 AM55.4 °F55.4 °F100 %30.15 in4.3 miSW (230°)5.8 mphMostly Cloudy
1:20 AM55.4 °F53.6 °F94 %30.18 in6.2 miWSW (240°)8.1 mphMostly Cloudy
1:50 AM55.4 °F53.6 °F94 %30.18 in4.3 miSW (230°)5.8 mphMostly Cloudy
2:20 AM55.4 °F53.6 °F94 %30.18 in3.7 miVariable3.5 mphMostly Cloudy
2:50 AM55.4 °F53.6 °F94 %30.18 in2.2 miWSW (250°)3.5 mphOvercast
3:20 AM55.4 °F55.4 °F100 %30.15 in2.5 miWSW (250°)4.6 mphOvercast
3:50 AM55.4 °F53.6 °F94 %30.15 in4.3 miWest (260°)6.9 mphOvercast
4:20 AM55.4 °F53.6 °F94 %30.15 in5.0 miWSW (250°)4.6 mphOvercast
4:50 AM55.4 °F53.6 °F94 %30.15 in5.0 miWSW (250°)4.6 mphOvercast
5:20 AM53.6 °F53.6 °F100 %30.15 in1.1 miWest (260°)4.6 mphOvercast
5:50 AM55.4 °F53.6 °F94 %30.15 in1.2 miWSW (250°)3.5 mphDrizzle
6:20 AM53.6 °F53.6 °F100 %30.18 inWest (260°)3.5 mphRainLight Rain
6:50 AM55.4 °F53.6 °F94 %30.18 inWest (280°)4.6 mphRainLight Drizzle
7:20 AM51.8 °F50.0 °F94 %30.21 in3.7 miNorth (350°)15.0 mphRainLight Rain
7:50 AM50.0 °F48.2 °F94 %30.21 inNorth (350°)9.2 mphRainRain
8:20 AM50.0 °F48.2 °F94 %30.24 in6.2 miNorth (350°)9.2 mphRainLight Rain
8:50 AM50.0 °F48.2 °F94 %30.24 inNorth (350°)9.2 mphRainLight Rain
9:20 AM50.0 °F48.2 °F94 %30.27 in6.2 miNorth (360°)9.2 mphRainLight Rain
9:50 AM50.0 °F48.2 °F94 %30.27 in6.2 miVariable6.9 mph20.7 mphMostly Cloudy
10:20 AM51.8 °F48.2 °F88 %30.27 in4.3 miNorth (360°)8.1 mphRainLight Rain
10:50 AM51.8 °F48.2 °F88 %30.27 in6.2 miNNW (340°)5.8 mph19.6 mphMostly Cloudy
11:20 AM51.8 °F48.2 °F88 %30.27 in6.2 miVariable8.1 mphPartly Cloudy
11:50 AM53.6 °F48.2 °F82 %30.27 in6.2 miNNW (340°)8.1 mphPartly Cloudy
12:20 PM53.6 °F48.2 °F82 %30.30 in6.2 miNorth (350°)11.5 mphScattered Clouds
12:50 PM53.6 °F48.2 °F82 %30.30 in6.2 miVariable11.5 mph23.0 mphScattered Clouds
1:20 PM53.6 °F46.4 °F77 %30.30 in6.2 miNorth (360°)11.5 mph26.5 mphPartly Cloudy
1:50 PM53.6 °F46.4 °F77 %30.30 in6.2 miNorth (350°)9.2 mphScattered Clouds
2:20 PM53.6 °F46.4 °F77 %30.30 in6.2 miNorth (360°)9.2 mphScattered Clouds
2:50 PM53.6 °F44.6 °F72 %30.30 in6.2 miNorth (350°)8.1 mphScattered Clouds
3:20 PM51.8 °F42.8 °F71 %30.33 in6.2 miNNW (340°)10.4 mphScattered Clouds
3:50 PM50.0 °F44.6 °F82 %30.33 inNW (320°)6.9 mphClear
4:20 PM50.0 °F42.8 °F76 %30.36 inNW (320°)5.8 mphClear
4:50 PM50.0 °F42.8 °F76 %30.39 inNW (320°)5.8 mphClear
5:20 PM48.2 °F42.8 °F82 %30.39 inNNW (330°)5.8 mphClear
5:50 PM48.2 °F42.8 °F82 %30.42 in6.2 miNNW (330°)5.8 mphPartly Cloudy
6:20 PM48.2 °F42.8 °F82 %30.42 in6.2 miNW (320°)4.6 mphPartly Cloudy
6:50 PM46.4 °F42.8 °F87 %30.42 in6.2 miNW (320°)4.6 mphPartly Cloudy
7:50 PM44.6 °F41.0 °F87 %30.45 inNW (310°)5.8 mphClear
8:20 PM44.6 °F41.0 °F87 %30.48 inWNW (300°)4.6 mphClear
8:50 PM44.6 °F41.0 °F87 %30.48 inNW (320°)4.6 mphClear
9:20 PM42.8 °F39.2 °F87 %30.48 inNW (310°)3.5 mphClear
9:50 PM42.8 °F39.2 °F87 %30.48 inVariable3.5 mphClear
10:20 PM41.0 °F37.4 °F87 %30.51 inCalmClear
10:50 PM42.8 °F37.4 °F81 %30.51 inNW (320°)4.6 mphClear
11:20 PM41.0 °F37.4 °F87 %30.51 inVariable3.5 mphClear
11:50 PM41.0 °F37.4 °F87 %30.51 inNNW (330°)3.5 mphClear
Hourly data recorded from EGKK, located miles away from London, England







STORIES FROM OUR PARTNERS